Location: Pasadena, ca
(34.1243°N, 118.1037°W)
Time: 23:13:48
(UTC-08:00)

N. Korean satellite - Pass Details

Date: 10 November 2017
Orbit: 460 x 514 km, 97.2° (Epoch: 21 November)

Event Time Altitude Azimuth Distance (km) Brightness Sun altitude
Rises 18:53:57 0° 207° (SSW) 2,470 10.6 -25.5°
Reaches altitude 10° 18:56:50 10° 235° (SW) 1,602 9.9 -26.1°
Maximum altitude 18:58:36 13° 266° (W) 1,406 9.8 -26.4°
Drops below altitude 10° 19:00:22 10° 297° (WNW) 1,612 9.9 -26.8°
Sets 19:03:18 0° 325° (NW) 2,499 10.6 -27.4°
